Latest Coastal Weather Observations for Spring Bay

IDT60701

Issued at 3:32 pm EDT Tuesday 3 March 2015 (issued every 10 minutes, with the page automatically refreshed every 10 minutes)

About coastal observations | Map of coastal stations | Coastal observations for TAS | Marine services | Other Formats
Station Details ID: 092133 Name: SPRING BAY NTC AWS Lat: -42.55 Lon: 147.93 Height: 0.0 m
Data from the previous 72 hours. | See also: Recent months for locations in Tasmania
Date/Time
EDT
Temp

°C
Wind Pressure Rain
since 9am
mm
Weather Cloud Vis
km
Sea
Height
m
Swell
Dir
 
Speed
knots
Gust
knots
hPa Trend Height
m
Period
s
Dir
03/03:30pm 16.9 - - - 1011.9 - - - - - - - - -
03/03:00pm 16.2 - - - 1012.3 - - - - - - - - -
03/02:30pm 16.7 - - - 1012.7 - - - - - - - - -
03/02:00pm 16.8 - - - 1012.9 - - - - - - - - -
03/01:30pm 16.8 - - - 1013.0 - - - - - - - - -
03/01:00pm 16.9 - - - 1013.3 - - - - - - - - -
03/12:30pm 16.5 - - - 1013.8 - - - - - - - - -
03/12:00pm 16.5 - - - 1014.1 - - - - - - - - -
03/11:30am 15.8 - - - 1014.3 - - - - - - - - -
03/11:00am 15.7 - - - 1014.5 - - - - - - - - -
03/10:30am 15.1 - - - 1014.5 - - - - - - - - -
03/10:00am 15.1 - - - 1014.5 - - - - - - - - -
03/09:30am 15.9 - - - 1014.5 - - - - - - - - -
03/09:00am 13.6 - - - 1014.5 - - - - - - - - -
03/08:30am 13.1 - - - 1014.1 - - - - - - - - -
03/08:00am 12.7 - - - 1014.0 - - - - - - - - -
03/07:30am 12.6 - - - 1013.6 - - - - - - - - -
03/07:00am 11.8 - - - 1013.0 - - - - - - - - -
03/06:30am 12.1 - - - 1012.5 - - - - - - - - -
03/06:00am 11.4 - - - 1011.8 - - - - - - - - -
03/05:30am 11.6 - - - 1011.8 - - - - - - - - -
03/05:00am 11.6 - - - 1011.8 - - - - - - - - -
03/04:30am 11.8 - - - 1011.7 - - - - - - - - -
03/04:00am 12.4 - - - 1011.6 - - - - - - - - -
03/03:30am 13.0 - - - 1011.5 - - - - - - - - -
03/03:00am 13.4 - - - 1011.5 - - - - - - - - -
03/02:30am 13.4 - - - 1011.9 - - - - - - - - -
03/02:00am 14.0 - - - 1012.2 - - - - - - - - -
03/01:30am 14.8 - - - 1012.5 - - - - - - - - -
03/01:00am 15.2 - - - 1012.7 - - - - - - - - -
03/12:30am 15.1 - - - 1013.1 - - - - - - - - -
03/12:00am 15.3 - - - 1012.9 - - - - - - - - -
 
Date/Time
EDT
Temp

°C
Wind Pressure Rain
since 9am
mm
Weather Cloud Vis
km
Sea
Height
m
Swell
Dir
 
Speed
knots
Gust
knots
hPa Trend Height
m
Period
s
Dir
02/11:30pm 15.3 - - - 1013.0 - - - - - - - - -
02/11:00pm 15.4 - - - 1012.9 - - - - - - - - -
02/10:30pm 15.7 - - - 1012.7 - - - - - - - - -
02/10:00pm 16.2 - - - 1012.2 - - - - - - - - -
02/09:30pm 16.7 - - - 1011.7 - - - - - - - - -
02/09:00pm 17.3 - - - 1011.3 - - - - - - - - -
02/08:30pm 17.9 - - - 1010.9 - - - - - - - - -
02/08:00pm 18.4 - - - 1010.7 - - - - - - - - -
02/07:30pm 18.7 - - - 1010.7 - - - - - - - - -
02/07:00pm 19.2 - - - 1010.4 - - - - - - - - -
02/06:30pm 19.6 - - - 1010.4 - - - - - - - - -
02/06:00pm 19.8 - - - 1010.7 - - - - - - - - -
02/05:30pm 19.4 - - - 1010.8 - - - - - - - - -
02/05:00pm 19.0 - - - 1011.2 - - - - - - - - -
02/04:30pm 18.4 - - - 1011.4 - - - - - - - - -
02/04:00pm 18.2 - - - 1011.9 - - - - - - - - -
02/03:30pm 18.0 - - - 1012.3 - - - - - - - - -
02/03:00pm 18.1 - - - 1012.8 - - - - - - - - -
02/02:30pm 18.4 - - - 1013.5 - - - - - - - - -
02/02:00pm 18.0 - - - 1014.0 - - - - - - - - -
02/01:30pm 17.3 - - - 1014.5 - - - - - - - - -
02/01:00pm 17.3 - - - 1015.2 - - - - - - - - -
02/12:30pm 16.3 - - - 1016.4 - - - - - - - - -
02/12:00pm 15.4 - - - 1017.2 - - - - - - - - -
02/11:30am 15.1 - - - 1017.7 - - - - - - - - -
02/11:00am 14.5 - - - 1018.1 - - - - - - - - -
02/10:30am 13.4 - - - 1018.4 - - - - - - - - -
02/10:00am 13.1 - - - 1018.6 - - - - - - - - -
02/09:30am 13.6 - - - 1018.6 - - - - - - - - -
02/09:00am 12.2 - - - 1018.8 - - - - - - - - -
02/08:30am 11.6 - - - 1019.0 - - - - - - - - -
02/08:00am 10.4 - - - 1018.8 - - - - - - - - -
02/07:30am 10.6 - - - 1018.5 - - - - - - - - -
02/07:00am 9.9 - - - 1018.4 - - - - - - - - -
02/06:30am 9.5 - - - 1018.3 - - - - - - - - -
02/06:00am 9.8 - - - 1018.3 - - - - - - - - -
02/05:30am 9.5 - - - 1018.3 - - - - - - - - -
02/05:00am 9.9 - - - 1018.2 - - - - - - - - -
02/04:30am 9.5 - - - 1018.1 - - - - - - - - -
02/04:00am 10.4 - - - 1017.9 - - - - - - - - -
02/03:30am 9.8 - - - 1018.0 - - - - - - - - -
02/03:00am 11.2 - - - 1017.6 - - - - - - - - -
02/02:30am 10.9 - - - 1017.5 - - - - - - - - -
02/02:00am 10.5 - - - 1017.6 - - - - - - - - -
02/01:30am 11.0 - - - 1017.5 - - - - - - - - -
02/01:00am 12.2 - - - 1017.5 - - - - - - - - -
02/12:30am 12.7 - - - 1017.3 - - - - - - - - -
02/12:00am 13.1 - - - 1016.9 - - - - - - - - -
 
Date/Time
EDT
Temp

°C
Wind Pressure Rain
since 9am
mm
Weather Cloud Vis
km
Sea
Height
m
Swell
Dir
 
Speed
knots
Gust
knots
hPa Trend Height
m
Period
s
Dir
01/11:30pm 13.7 - - - 1016.8 - - - - - - - - -
01/11:00pm 13.8 - - - 1017.0 - - - - - - - - -
01/10:30pm 14.0 - - - 1016.7 - - - - - - - - -
01/10:00pm 14.7 - - - 1016.5 - - - - - - - - -
01/09:30pm 14.7 - - - 1016.2 - - - - - - - - -
01/09:00pm 15.1 - - - 1015.8 - - - - - - - - -
01/08:30pm 15.3 - - - 1015.1 - - - - - - - - -
01/08:00pm 15.5 - - - 1014.6 - - - - - - - - -
01/07:30pm 15.9 - - - 1013.8 - - - - - - - - -
01/07:00pm 16.3 - - - 1013.4 - - - - - - - - -
01/06:30pm 16.9 - - - 1012.9 - - - - - - - - -
01/06:00pm 16.6 - - - 1012.4 - - - - - - - - -
01/05:30pm 16.6 - - - 1011.7 - - - - - - - - -
01/05:00pm 17.3 - - - 1011.3 - - - - - - - - -
01/04:30pm 17.2 - - - 1011.1 - - - - - - - - -
01/04:00pm 17.4 - - - 1010.5 - - - - - - - - -
01/03:30pm 17.5 - - - 1010.2 - - - - - - - - -
01/03:00pm 16.8 - - - 1009.9 - - - - - - - - -
01/02:30pm 16.9 - - - 1009.5 - - - - - - - - -
01/02:00pm 16.5 - - - 1009.1 - - - - - - - - -
01/01:30pm 17.9 - - - 1008.6 - - - - - - - - -
01/01:00pm 17.8 - - - 1008.3 - - - - - - - - -
01/12:30pm 17.1 - - - 1008.2 - - - - - - - - -
01/12:00pm 17.4 - - - 1007.8 - - - - - - - - -
01/11:30am 17.4 - - - 1007.4 - - - - - - - - -
01/11:00am 17.1 - - - 1007.0 - - - - - - - - -
01/10:30am 16.6 - - - 1006.5 - - - - - - - - -
01/10:00am 16.4 - - - 1005.8 - - - - - - - - -
01/09:30am 16.3 - - - 1005.4 - - - - - - - - -
01/09:00am 15.7 - - - 1004.9 - - - - - - - - -
01/08:30am 15.1 - - - 1004.4 - - - - - - - - -
01/08:00am 16.1 - - - 1003.5 - - - - - - - - -
01/07:30am 15.9 - - - 1002.7 - - - - - - - - -
01/07:00am 15.7 - - - 1001.8 - - - - - - - - -
01/06:30am 15.8 - - - 1001.1 - - - - - - - - -
01/06:00am 15.9 - - - 1000.5 - - - - - - - - -
01/05:30am 16.2 - - - 1000.2 - - - - - - - - -
01/05:00am 16.8 - - - 1000.1 - - - - - - - - -
01/04:30am 17.0 - - - 999.8 - - - - - - - - -
01/04:00am 17.2 - - - 999.7 - - - - - - - - -
01/03:30am 17.7 - - - 999.9 - - - - - - - - -
01/03:00am 18.0 - - - 999.9 - - - - - - - - -

Other Formats:

Comma delimited format used in spreadsheet applications
http://www.bom.gov.au/fwo/IDT60701/IDT60701.95987.axf

JavaScript Object Notation format (JSON) in row-major order
http://www.bom.gov.au/fwo/IDT60701/IDT60701.95987.json